2022/11/12 23:20:49+0000,-40.71,-27.13,-25.90,-43.57,-29.71,-33.84
2022/11/12 23:21:49+0000,-41.42,-27.36,-25.83,-41.87,-29.26,-33.94
2022/11/12 23:22:41+0000,-40.94,-27.43,-31.68,-29.93,-31.49,-32.72
2022/11/12 23:23:33+0000,-40.72,-28.55,-22.42,-37.66,-28.05,-33.13
2022/11/12 23:24:25+0000,-38.46,-29.06,-31.65,-32.35,-45.15,-31.16
2022/11/12 23:25:17+0000,-39.61,-28.08,-32.43,-40.77,-31.88,-29.79
2022/11/12 23:26:09+0000,-40.10,-27.24,-21.32,-32.19,-44.15,-35.96
2022/11/12 23:27:02+0000,-39.72,-26.80,-27.42,-33.12,-31.75,-44.99
2022/11/12 23:27:54+0000,-39.68,-29.19,-27.55,-32.52,-44.62,-38.93
2022/11/12 23:28:46+0000,-39.95,-27.67,-29.84,-31.64,-26.49,-46.72
2022/11/12 23:29:38+0000,-39.29,-27.27,-35.35,-28.55,-27.51,-33.90
2022/11/12 23:30:33+0000,-40.32,-28.17,-20.60,-42.40,-34.06,-37.09
2022/11/12 23:31:34+0000,-40.23,-29.67,-22.58,-35.93,-29.08,-37.95
2022/11/12 23:32:26+0000,-41.31,-28.17,-36.39,-29.01,-28.85,-36.77
2022/11/12 23:33:18+0000,-42.29,-27.62,-27.88,-45.02,-27.51,-41.01
2022/11/12 23:34:10+0000,-41.51,-26.60,-27.64,-29.38,-40.07,0.47
2022/11/12 23:35:02+0000,-41.66,-27.42,-22.98,-41.87,-31.00,-29.08
2022/11/12 23:35:55+0000,-40.34,-24.79,-31.07,-28.22,-45.36,-39.13
2022/11/12 23:36:47+0000,-40.22,-27.78,-26.92,-28.71,-30.07,-43.64
2022/11/12 23:37:39+0000,-39.92,-27.99,-29.09,-29.75,-44.34,-31.99
2022/11/12 23:38:31+0000,-39.43,-26.91,-27.33,-31.88,-38.07,-44.07
2022/11/12 23:39:23+0000,-40.37,-25.03,-25.09,-29.81,-34.29,-40.31
2022/11/12 23:40:20+0000,-40.53,-29.18,-30.41,-31.86,-28.96,-39.45
2022/11/12 23:41:21+0000,-41.32,-28.24,-30.60,-32.36,-27.45,-41.55
2022/11/12 23:42:13+0000,-41.21,-26.92,-34.43,-30.74,-29.13,-37.17
2022/11/12 23:43:05+0000,-41.32,-27.33,-26.37,-32.05,-33.10,-38.42
2022/11/12 23:43:57+0000,-40.44,-24.95,-34.84,-31.85,-32.94,-42.30
2022/11/12 23:44:49+0000,-41.50,-29.81,-24.25,-35.30,-28.51,-40.45
2022/11/12 23:45:41+0000,-40.86,-24.37,-34.39,-29.75,-28.15,-39.69
2022/11/12 23:46:33+0000,-40.71,-24.21,-25.53,-42.29,-32.49,-34.86
2022/11/12 23:47:25+0000,-42.00,-23.72,-24.79,-32.40,-44.43,-43.51
2022/11/12 23:48:18+0000,-40.52,-22.81,-29.06,-43.01,-27.70,-44.12
2022/11/12 23:49:10+0000,-40.60,-25.85,-26.76,-30.41,-26.63,-43.25
2022/11/12 23:50:07+0000,-41.60,-26.20,-29.12,-30.16,-33.26,-33.96
2022/11/12 23:51:07+0000,-41.60,-23.78,-26.96,-30.37,-31.13,-38.38
2022/11/12 23:51:59+0000,-41.92,-26.74,-25.39,-32.30,-31.14,-43.12
2022/11/12 23:52:51+0000,-41.84,-27.97,-26.23,-30.86,-24.70,-40.26
2022/11/12 23:53:43+0000,-40.57,-21.87,-27.84,-30.17,-30.04,-36.26
2022/11/12 23:54:35+0000,-40.92,-27.47,-25.29,-26.44,-34.39,-37.18
2022/11/12 23:55:27+0000,-40.27,-21.62,-35.96,-36.02,-30.90,-43.49
2022/11/12 23:56:20+0000,-40.46,-27.23,-25.83,-31.74,-21.86,-42.52
2022/11/12 23:57:12+0000,-39.63,-26.50,-36.37,-27.47,-22.14,-35.82
2022/11/12 23:58:04+0000,-41.67,-23.95,-25.25,-42.88,-30.81,-37.51
2022/11/12 23:58:56+0000,-39.53,-23.55,-32.51,-35.47,-32.28,-45.87
2022/11/12 23:59:53+0000,-41.17,-25.12,-24.22,-34.80,-23.50,-41.52
2022/11/13 00:00:51+0000,-40.92,-27.73,-25.98,-34.57,-21.87,-41.03
2022/11/13 00:01:52+0000,-41.08,-24.70,-27.17,-33.92,-23.32,-41.64
2022/11/13 00:02:44+0000,-41.59,-19.11,-25.35,-32.28,-28.82,-35.45
2022/11/13 00:03:36+0000,-40.43,-28.64,-25.93,-31.38,-25.86,-34.15
2022/11/13 00:04:28+0000,-40.54,-24.69,-28.13,-33.17,-31.42,-43.18
2022/11/13 00:05:20+0000,-40.81,-27.28,-31.60,-33.05,-29.40,-41.96
2022/11/13 00:06:12+0000,-40.90,-27.16,-35.44,-24.15,-27.14,-39.53
2022/11/13 00:07:04+0000,-40.19,-27.70,-25.23,-30.07,-34.01,-39.08
2022/11/13 00:07:57+0000,-40.28,-25.39,-34.72,-30.33,-35.27,-43.20
2022/11/13 00:08:49+0000,-41.42,-24.49,-22.10,-40.27,-24.31,-43.29
2022/11/13 00:09:44+0000,-42.94,-24.86,-31.48,-29.49,-29.51,-39.37
2022/11/13 00:10:37+0000,-40.51,-27.95,-23.52,-28.51,-34.70,-34.99
2022/11/13 00:11:37+0000,-41.83,-24.31,-20.51,-32.64,-37.35,-37.44
2022/11/13 00:12:29+0000,-41.32,-18.64,-19.86,-34.98,-37.93,-37.98
2022/11/13 00:13:21+0000,-42.00,-26.83,-31.54,-34.10,-30.85,-39.73
2022/11/13 00:14:14+0000,-41.05,-22.42,-30.34,-28.97,24.56,-41.09
2022/11/13 00:15:06+0000,-40.92,-28.58,-20.75,-30.13,-35.27,-42.70
2022/11/13 00:15:58+0000,-39.53,-25.28,-34.77,-32.38,-37.18,-40.48
2022/11/13 00:16:50+0000,-41.42,-28.18,-29.78,-29.42,-27.25,-41.28
2022/11/13 00:17:42+0000,-40.53,-25.71,-35.64,-30.20,-25.06,-41.92
2022/11/13 00:18:34+0000,-40.96,-26.02,-23.45,-42.63,-31.74,-42.07
2022/11/13 00:19:26+0000,-35.45,-23.21,-19.43,-31.12,-31.19,-44.62
2022/11/13 00:20:24+0000,-41.44,-25.76,-26.51,-30.18,-43.70,-43.94
2022/11/13 00:21:24+0000,-40.45,-25.03,-33.17,-32.68,-44.90,-39.52
2022/11/13 00:22:17+0000,-40.44,-23.02,-32.28,-31.51,-28.68,-44.59
2022/11/13 00:23:09+0000,-40.41,-19.36,-19.96,-30.71,-45.59,-40.99
2022/11/13 00:24:01+0000,-41.69,-24.37,-23.14,-30.01,-34.49,-46.09
2022/11/13 00:24:53+0000,-41.70,-26.00,-30.56,-26.25,-26.45,-40.95
2022/11/13 00:25:45+0000,-41.07,-20.62,-25.87,-25.38,-29.74,-45.72
2022/11/13 00:26:37+0000,-40.92,-22.47,-20.84,-33.71,-35.04,-41.88
2022/11/13 00:27:29+0000,-40.88,-22.47,-23.69,-27.57,-31.63,-41.99
2022/11/13 00:28:21+0000,-41.49,-28.65,-29.09,-30.51,-29.95,-40.81
2022/11/13 00:29:13+0000,-42.00,-19.02,-30.72,-29.34,-32.07,-38.74
2022/11/13 00:30:11+0000,-41.75,-21.23,-36.00,-25.16,-34.45,-38.61
2022/11/13 00:31:12+0000,-41.96,-21.14,-35.06,-27.87,-37.21,-40.52
2022/11/13 00:32:04+0000,-43.06,-28.40,-15.54,-28.80,-34.15,-40.60
2022/11/13 00:32:57+0000,-35.62,-20.61,-36.07,-34.27,-28.28,-40.56
2022/11/13 00:33:49+0000,-37.43,-19.57,-32.35,-40.77,-32.51,-41.23
2022/11/13 00:34:41+0000,-40.13,-19.62,-22.09,-31.58,-33.78,-40.51
2022/11/13 00:35:33+0000,-40.52,-21.07,-16.51,-40.81,-33.38,-38.60
2022/11/13 00:36:25+0000,-41.50,-22.38,-30.36,-33.03,-45.38,-40.98
2022/11/13 00:37:17+0000,-41.79,-18.38,-31.89,-41.95,-35.54,-43.67
2022/11/13 00:38:09+0000,-41.17,-22.43,-18.91,-27.35,-45.53,-40.76
2022/11/13 00:39:01+0000,-42.32,-21.01,-20.33,-33.48,-31.28,-39.93
2022/11/13 00:39:58+0000,-41.66,-19.67,-19.21,-31.02,-31.55,-43.72
2022/11/13 00:40:50+0000,-41.54,-27.46,-30.74,-26.54,-39.45,-44.17
2022/11/13 00:41:51+0000,-41.42,-29.29,-31.10,-27.00,-36.84,-43.45
2022/11/13 00:42:43+0000,-41.66,-19.96,-33.59,-28.75,-34.83,-38.69
2022/11/13 00:43:35+0000,-40.39,-28.72,-17.48,-26.41,-26.54,-39.49
2022/11/13 00:44:28+0000,-41.07,-18.29,-34.82,-36.06,-28.67,-43.10
2022/11/13 00:45:20+0000,-41.85,-24.51,-27.14,-35.78,-35.08,-40.97
2022/11/13 00:46:12+0000,-40.61,-24.99,-35.22,-26.91,-37.13,-39.83
2022/11/13 00:47:04+0000,-41.09,-19.88,-21.55,-40.48,-38.21,-41.15
2022/11/13 00:47:56+0000,-41.22,-25.49,-35.50,-34.02,-28.64,-36.51
2022/11/13 00:48:48+0000,-40.60,-23.70,-29.56,-45.70,-31.96,-36.99
2022/11/13 00:49:47+0000,-41.48,-25.27,-29.13,-38.65,-32.71,-39.98
2022/11/13 00:50:39+0000,-42.07,-23.65,-19.78,-29.55,-45.45,-37.90
2022/11/13 00:51:41+0000,-41.15,-18.69,-32.28,-33.18,-35.04,-40.06
2022/11/13 00:52:33+0000,-40.52,-16.53,-24.16,-43.73,-37.44,-37.83
2022/11/13 00:53:25+0000,-39.22,-15.38,-32.31,-33.73,-43.92,-39.36
2022/11/13 00:54:17+0000,-39.22,-18.59,-32.80,-42.26,-34.06,-41.49
2022/11/13 00:55:09+0000,-34.08,-18.35,-24.61,-35.36,-45.24,-41.45
2022/11/13 00:56:01+0000,-40.31,-21.66,-25.65,-32.09,-40.03,-46.12
2022/11/13 00:56:53+0000,-40.25,-20.68,-31.26,-32.51,-43.45,-39.90
2022/11/13 00:57:45+0000,-41.66,-20.98,-32.72,-31.58,-33.21,-45.47
2022/11/13 00:58:38+0000,-39.91,-20.94,-23.33,-33.05,-41.84,-40.81
2022/11/13 00:59:30+0000,-41.72,-24.19,-19.36,-35.04,-42.58,-42.21
2022/11/13 01:00:28+0000,-41.40,-22.34,-23.80,-35.72,-38.99,-41.88
2022/11/13 01:01:29+0000,-40.36,-19.06,-18.35,-37.05,-42.29,-40.74
2022/11/13 01:02:21+0000,-36.63,-24.24,-26.47,-35.09,-40.58,-43.72
2022/11/13 01:03:13+0000,-40.29,-27.55,-32.29,-40.33,-40.73,-44.69
2022/11/13 01:04:05+0000,-40.54,-24.55,-19.63,-40.21,-44.13,-44.03
2022/11/13 01:04:57+0000,-41.63,-17.17,-33.55,-31.98,-43.47,-41.25
2022/11/13 01:05:49+0000,-41.17,-16.19,-25.73,-44.36,-39.66,-41.69
2022/11/13 01:06:41+0000,-42.51,-26.20,-32.91,-32.69,-42.15,-40.14
2022/11/13 01:07:33+0000,-41.76,-22.78,-26.13,-44.58,-42.28,-43.07
2022/11/13 01:08:26+0000,-39.05,-20.23,-33.53,-32.65,-44.95,-43.20
2022/11/13 01:09:18+0000,-39.23,-19.01,-29.13,-31.61,-44.85,-42.58
2022/11/13 01:10:16+0000,-38.08,-19.04,-29.75,-30.41,-41.38,-45.92
2022/11/13 01:11:18+0000,-41.14,-19.60,-26.93,-43.46,-39.78,-42.88
2022/11/13 01:12:10+0000,-29.15,-18.53,-22.07,-28.64,-44.04,-42.70
2022/11/13 01:13:02+0000,-26.81,-23.68,-21.51,-40.82,-43.72,-44.73
2022/11/13 01:13:54+0000,-40.07,-19.21,-28.05,-29.63,-45.97,-42.24
2022/11/13 01:14:46+0000,-40.60,-19.81,-28.21,-25.89,-42.14,-46.19
2022/11/13 01:15:38+0000,-39.54,-18.99,-20.51,-25.67,-44.49,-42.12
2022/11/13 01:16:30+0000,-40.93,-22.99,-22.91,-36.80,-43.02,-46.28
2022/11/13 01:17:22+0000,-38.94,-22.06,-30.04,-27.65,-41.80,-43.79
2022/11/13 01:18:15+0000,-41.06,-25.35,-29.64,-25.78,-42.67,-45.95
2022/11/13 01:19:07+0000,-28.12,-20.85,-25.05,-34.13,-43.24,-42.48
2022/11/13 01:20:06+0000,-30.54,-29.46,-26.22,-33.99,-43.17,-43.43
2022/11/13 01:21:07+0000,-31.72,-22.68,-25.09,-35.01,-42.34,-42.76
2022/11/13 01:21:59+0000,-40.77,-25.97,-24.78,-31.49,-43.12,-44.54
2022/11/13 01:22:51+0000,-39.37,-29.21,-30.21,-37.81,-44.17,-44.39
2022/11/13 01:23:43+0000,-40.61,-18.86,-31.22,-33.63,-43.79,-42.32
2022/11/13 01:24:35+0000,-31.37,-29.09,-28.92,-33.88,-42.56,-44.12
2022/11/13 01:25:27+0000,-40.74,-25.95,-37.23,-29.41,-44.15,-44.49
2022/11/13 01:26:20+0000,-41.79,-27.76,-31.69,-37.14,-41.87,-44.80
2022/11/13 01:27:12+0000,-28.79,-18.73,-37.23,-31.29,-42.26,-43.69
2022/11/13 01:28:04+0000,-40.16,-23.78,-28.20,-43.13,-43.09,-43.47
2022/11/13 01:28:56+0000,-41.70,-21.23,-35.51,-27.73,-43.74,-43.25
2022/11/13 01:29:54+0000,-41.67,-22.52,-28.34,-27.67,-44.41,-42.96
2022/11/13 01:30:46+0000,-39.23,-19.34,-30.17,-41.90,-42.75,-43.30
2022/11/13 01:31:47+0000,-39.58,-18.13,-31.92,-43.93,-43.45,-45.54
2022/11/13 01:32:39+0000,-39.79,-19.31,-27.27,-39.88,-44.75,-45.71
2022/11/13 01:33:31+0000,-40.25,-19.77,-25.35,-37.51,-45.04,-45.84
2022/11/13 01:34:23+0000,-38.40,-19.67,-27.98,-36.88,5.08,-45.84
2022/11/13 01:35:16+0000,-40.01,-20.50,-27.91,-39.57,-42.66,-47.06
2022/11/13 01:36:08+0000,-39.57,-21.34,-25.28,-39.36,-44.42,-44.28
2022/11/13 01:37:00+0000,-41.36,-18.37,-28.33,-41.24,-45.17,-45.50
2022/11/13 01:37:52+0000,-30.83,-21.44,-26.98,-41.02,-43.08,-45.80
2022/11/13 01:38:44+0000,-41.83,-21.11,-29.43,-40.21,-41.77,-43.74
2022/11/13 01:39:36+0000,-40.39,-21.07,-36.45,-42.77,-42.27,-44.74
2022/11/13 01:40:35+0000,-30.94,-26.16,-30.36,-41.92,-44.39,-45.11
2022/11/13 01:41:35+0000,-32.48,-26.55,-29.10,-41.03,-43.65,-44.35
2022/11/13 01:42:27+0000,-31.16,-18.11,-36.66,-42.20,-44.19,-46.01
2022/11/13 01:43:19+0000,-33.82,-29.28,-29.37,-40.66,-43.80,-45.35
2022/11/13 01:44:12+0000,-34.10,-20.96,-36.59,-39.54,-41.69,-43.71
2022/11/13 01:45:04+0000,-33.88,-18.10,-31.15,-45.16,-41.95,-42.98
2022/11/13 01:45:56+0000,-32.37,-20.30,-27.76,-42.31,-45.32,-43.03
2022/11/13 01:46:48+0000,-30.71,-22.00,-29.36,-42.61,-42.74,-43.07
2022/11/13 01:47:40+0000,-40.45,-21.22,-29.71,-43.57,-44.39,-42.57
2022/11/13 01:48:32+0000,-40.23,-19.42,-29.49,-44.58,-44.46,-43.83
2022/11/13 01:49:24+0000,-38.56,-17.44,-28.97,-41.07,-44.64,-45.75
2022/11/13 01:50:21+0000,-33.36,-28.55,-30.60,-41.23,-44.45,-45.66
2022/11/13 01:51:22+0000,-35.91,-21.10,-32.02,-40.62,-42.27,-46.16
2022/11/13 01:52:14+0000,-41.56,-20.92,-31.59,-40.48,-42.93,-44.80
2022/11/13 01:53:07+0000,-29.78,-22.37,-27.68,-43.63,-44.79,-45.77
2022/11/13 01:53:59+0000,-41.99,-18.83,-31.68,-42.82,-45.30,-47.02
2022/11/13 01:54:51+0000,-36.40,-29.69,-30.26,-43.98,-43.71,-46.56
2022/11/13 01:55:43+0000,-41.39,-21.79,-35.51,-43.18,-43.14,-45.71
2022/11/13 01:56:35+0000,-39.26,-27.55,-31.32,-43.36,-45.72,-45.12
2022/11/13 01:57:27+0000,-41.32,-18.54,-36.66,-41.40,-43.37,-46.20
2022/11/13 01:58:19+0000,-40.19,-20.68,-32.57,-43.85,-43.42,-44.26
2022/11/13 01:59:11+0000,-37.27,-19.98,-36.44,-41.54,-43.50,-46.62
2022/11/13 02:00:10+0000,-38.46,-17.57,-32.00,-41.38,-43.07,-43.00
2022/11/13 02:01:12+0000,-38.39,-19.44,-36.62,-43.17,-43.11,-43.39
2022/11/13 02:02:04+0000,-38.40,-21.03,-32.90,-44.61,8.71,-43.01
2022/11/13 02:02:56+0000,-35.77,-19.33,-37.95,-41.53,-43.67,-44.74
2022/11/13 02:03:48+0000,-38.66,-18.92,-30.97,-43.80,-43.88,-43.68
2022/11/13 02:04:40+0000,-38.31,-19.64,-29.89,-41.03,-43.64,-42.62
2022/11/13 02:05:32+0000,-40.59,-18.62,-29.61,-44.75,-43.67,-45.75
2022/11/13 02:06:25+0000,-40.22,-18.46,-31.66,-41.71,-45.41,-45.81
2022/11/13 02:07:17+0000,-37.54,-21.93,-31.65,-40.92,-41.53,-46.75
2022/11/13 02:08:09+0000,-37.82,-20.34,-31.07,-41.11,-44.68,-46.76
2022/11/13 02:09:01+0000,-40.81,-17.47,-31.52,-42.75,-45.20,-46.07
2022/11/13 02:09:59+0000,-41.54,-19.44,-29.62,-42.46,-43.16,-46.10
2022/11/13 02:10:51+0000,-36.71,-28.22,-30.10,-41.69,-43.22,-46.57
2022/11/13 02:11:52+0000,-34.26,-18.52,-34.49,-42.62,-42.96,-46.11
2022/11/13 02:12:44+0000,-41.74,-19.58,-35.12,-42.71,-43.90,-45.91
2022/11/13 02:13:37+0000,-38.86,-18.79,-31.79,-39.25,-42.88,-45.62
2022/11/13 02:14:29+0000,-42.12,-18.62,-32.58,-43.76,-44.62,-46.20
2022/11/13 02:15:21+0000,-38.62,-27.99,-35.09,-44.57,-43.40,-46.05
2022/11/13 02:16:13+0000,-37.62,-19.90,-36.40,-42.72,-43.60,-46.54
2022/11/13 02:17:05+0000,-37.53,-24.96,-31.94,-43.43,-44.49,-45.09
2022/11/13 02:17:57+0000,-39.73,-20.72,-37.02,-43.68,-43.54,-45.89
2022/11/13 02:18:49+0000,-35.27,-21.87,-33.52,-44.01,-44.05,-43.30
2022/11/13 02:19:47+0000,-36.55,-18.97,-29.45,-41.26,-42.34,-44.77
2022/11/13 02:20:39+0000,-41.91,-20.56,-33.46,-42.28,-45.41,-43.43
2022/11/13 02:21:38+0000,-40.94,-19.32,-28.32,-41.07,-44.86,-43.90
2022/11/13 02:22:30+0000,-41.08,-18.71,-29.23,-42.70,-44.26,-43.70
2022/11/13 02:23:22+0000,-35.96,-20.29,-26.97,-43.08,-43.80,-45.89
2022/11/13 02:24:14+0000,-40.29,-19.22,-29.19,-41.37,-44.31,-46.01
2022/11/13 02:25:07+0000,-33.47,-19.27,-33.13,-43.49,-44.40,-46.60
2022/11/13 02:25:59+0000,-42.22,-19.49,-30.85,-43.49,-44.56,-47.03
2022/11/13 02:26:51+0000,-39.31,-29.23,-30.03,-43.50,-43.88,-45.73
2022/11/13 02:27:43+0000,-36.82,-18.05,-35.39,-40.24,-43.94,-45.94
2022/11/13 02:28:35+0000,-41.02,-28.53,-29.29,-41.57,-44.82,-47.09
2022/11/13 02:29:27+0000,-38.42,-18.95,-28.42,-44.09,-44.43,-46.02
2022/11/13 02:30:26+0000,-33.87,-19.82,-36.55,-43.54,-45.02,-45.82
2022/11/13 02:31:27+0000,-39.87,-18.19,-36.67,-42.93,-44.02,-45.79
2022/11/13 02:32:19+0000,-35.97,-19.27,-30.71,-44.00,-42.51,-45.25
2022/11/13 02:33:11+0000,-41.39,-19.31,-35.47,-41.48,-44.25,-46.23
2022/11/13 02:34:04+0000,-40.19,-19.88,-32.85,-44.32,-44.79,-45.74
2022/11/13 02:34:56+0000,-41.09,-19.17,-36.09,-41.64,-43.85,-45.69
2022/11/13 02:35:48+0000,-41.69,-26.37,-27.88,-44.24,-43.26,-46.02
2022/11/13 02:36:40+0000,-41.66,-18.28,-30.30,-40.52,-44.54,-46.21
2022/11/13 02:37:32+0000,-27.28,-19.52,-31.78,-40.80,-43.51,-46.64
2022/11/13 02:38:24+0000,-40.80,-20.96,-26.18,-40.97,-44.58,-44.28
2022/11/13 02:39:16+0000,-39.80,-20.53,-27.47,-42.75,-44.09,-43.02
2022/11/13 02:40:14+0000,-42.86,-19.11,-31.52,-40.34,-45.46,-9.03
2022/11/13 02:41:14+0000,-42.47,-18.97,-28.19,-39.08,-44.97,-44.00
2022/11/13 02:42:07+0000,-29.84,-27.95,-29.89,-37.74,-44.19,-43.37
2022/11/13 02:42:59+0000,-41.39,-21.39,-34.66,-43.39,-45.09,-44.61
2022/11/13 02:43:51+0000,-41.48,-28.83,-31.51,-37.31,-44.34,-46.08
2022/11/13 02:44:43+0000,-40.21,-18.24,-36.11,-33.95,-45.25,-45.33
2022/11/13 02:45:35+0000,-31.69,-29.25,-29.53,-39.07,-44.49,-45.41
2022/11/13 02:46:27+0000,-36.57,-22.41,-36.94,-44.56,-41.91,-45.24
2022/11/13 02:47:19+0000,-41.10,-19.66,-35.52,-42.91,-43.10,-45.55
2022/11/13 02:48:11+0000,-27.33,-20.31,-36.17,-40.78,-44.21,-45.69
2022/11/13 02:49:03+0000,-30.71,-21.61,-28.21,-44.55,-43.77,-46.10
2022/11/13 02:50:00+0000,-40.70,-22.57,-29.61,-41.89,-44.50,-45.13
2022/11/13 02:51:01+0000,-31.60,-22.42,-28.69,-43.54,-44.00,-46.06
2022/11/13 02:51:53+0000,-38.10,-22.52,-30.02,-43.37,-45.02,-45.38
2022/11/13 02:52:45+0000,-39.39,-18.81,-30.23,-38.41,-43.33,-44.95
2022/11/13 02:53:37+0000,-35.29,-21.13,-33.09,-37.16,-44.96,-45.38
2022/11/13 02:54:30+0000,-43.25,-22.45,-33.48,-43.66,-44.78,-45.85
2022/11/13 02:55:22+0000,-36.31,-29.92,-29.98,-42.51,-45.25,-42.78
2022/11/13 02:56:14+0000,-43.08,-17.71,-32.81,-37.52,-42.92,-42.89
2022/11/13 02:57:06+0000,-36.84,-28.75,-34.61,-43.44,-44.84,-43.62
2022/11/13 02:57:58+0000,-42.80,-23.16,-33.42,-43.17,-45.04,-43.40
2022/11/13 02:58:50+0000,-40.57,-28.99,-33.85,-43.44,-44.74,-43.42
2022/11/13 02:59:50+0000,-40.64,-21.40,-34.39,-41.77,-45.42,-45.09
2022/11/13 03:00:42+0000,-37.49,-18.27,-35.93,-42.06,-45.80,-45.17
2022/11/13 03:01:43+0000,-37.48,-18.17,-32.02,-42.30,-44.39,-45.53
2022/11/13 03:02:35+0000,-35.57,-28.64,-33.37,-40.67,-43.87,-44.64
2022/11/13 03:03:27+0000,-40.51,-21.89,-36.69,-43.47,-44.43,-46.18
2022/11/13 03:04:19+0000,-41.79,-22.61,-35.23,-44.91,-2.82,-45.93
2022/11/13 03:05:11+0000,-39.75,-20.61,-37.06,-43.44,-45.40,-46.43
2022/11/13 03:06:03+0000,-40.60,-21.12,-31.27,-43.67,-44.94,-45.60
2022/11/13 03:06:55+0000,-40.15,-22.90,-34.88,-41.81,-45.20,-46.38
2022/11/13 03:07:48+0000,-37.10,-19.57,-34.73,-44.45,-43.93,-45.23
2022/11/13 03:08:40+0000,-37.72,-18.34,-31.09,-42.77,-45.17,-46.92
2022/11/13 03:09:32+0000,-37.00,-19.57,-33.44,-40.10,-45.12,-46.24
2022/11/13 03:10:31+0000,-40.30,-20.10,-32.76,-43.33,-44.77,-45.46
2022/11/13 03:11:33+0000,-41.24,-20.02,-32.28,-44.58,-45.38,-46.48
2022/11/13 03:12:25+0000,-35.94,-20.14,-34.17,-43.35,-43.29,-46.13
2022/11/13 03:13:17+0000,-41.26,-20.49,-33.63,-43.93,-45.10,-46.09
2022/11/13 03:14:09+0000,-40.94,-23.28,-34.58,-43.50,-45.63,-45.90
2022/11/13 03:15:02+0000,-40.34,-20.70,-36.95,-41.71,-44.79,-44.18
2022/11/13 03:15:54+0000,-38.27,-23.05,-33.25,-39.75,-44.31,-42.92
2022/11/13 03:16:46+0000,-39.70,-21.40,-33.65,-43.46,-43.68,-43.27
2022/11/13 03:17:38+0000,-38.88,-23.95,-35.30,-42.61,-44.80,-42.31
2022/11/13 03:18:30+0000,-41.14,-19.97,-34.62,-42.01,-44.70,-42.87
2022/11/13 03:19:22+0000,-37.45,-20.82,-36.53,-42.26,-45.00,-45.58
2022/11/13 03:20:20+0000,-38.38,-30.23,-34.31,-43.72,-45.12,-45.77
2022/11/13 03:21:21+0000,-38.60,14.82,-35.97,-43.16,-44.54,-45.79
2022/11/13 03:22:13+0000,-41.22,-23.15,-35.38,-37.74,-44.05,-45.49
2022/11/13 03:23:06+0000,-37.55,-29.72,-34.50,-41.55,-44.02,-45.20
2022/11/13 03:23:58+0000,-42.05,-22.79,-36.88,-43.85,-45.41,-44.67
2022/11/13 03:24:50+0000,-41.31,-27.73,-34.87,-43.15,-44.27,-45.48
2022/11/13 03:25:42+0000,-34.08,-22.47,-36.61,-43.39,-45.02,-45.21
2022/11/13 03:26:34+0000,-29.39,-21.59,-35.67,-45.35,-44.48,-45.20
2022/11/13 03:27:26+0000,-37.85,-22.09,-36.10,-43.65,-44.47,-46.76
2022/11/13 03:28:18+0000,-37.76,-21.56,-33.53,-43.91,-45.51,-45.71
2022/11/13 03:29:10+0000,-32.91,-23.52,-33.04,-44.79,-45.10,-45.64
2022/11/13 03:30:08+0000,-28.19,-22.75,-35.06,-43.75,-43.03,-46.08
2022/11/13 03:31:09+0000,-33.33,-20.84,-35.14,-43.53,-44.80,-46.41
2022/11/13 03:32:01+0000,-31.50,-20.82,-35.72,-39.53,-44.92,-45.33
2022/11/13 03:32:53+0000,-36.51,-21.97,-35.67,-42.37,-44.80,-45.62
2022/11/13 03:33:45+0000,-41.66,-22.14,-35.68,-44.13,-44.67,-43.11
2022/11/13 03:34:37+0000,-34.20,-22.33,-35.13,-43.45,-44.79,-43.21
2022/11/13 03:35:29+0000,-43.44,-24.20,-34.80,-41.55,-44.56,-43.28
2022/11/13 03:36:22+0000,-29.17,-26.08,-34.27,-38.49,-45.46,-42.63
2022/11/13 03:37:14+0000,-41.64,-21.66,-35.38,-42.58,-44.39,-43.42
2022/11/13 03:38:06+0000,-38.02,-29.42,-36.11,-43.18,-45.13,-45.89
2022/11/13 03:38:58+0000,-41.38,-22.82,-36.97,-43.84,-45.17,-44.80
2022/11/13 03:39:55+0000,-31.92,-24.00,-36.44,-43.31,-45.94,-47.24
2022/11/13 03:40:47+0000,-29.89,-21.71,-36.34,-45.02,-44.75,-45.77
2022/11/13 03:41:47+0000,-35.34,-22.44,-34.04,-44.98,-44.82,-45.99
2022/11/13 03:42:40+0000,-35.66,-23.69,-36.83,-40.51,-46.23,-47.17
2022/11/13 03:43:32+0000,-39.73,-22.82,-36.17,-43.57,-44.12,-46.55
2022/11/13 03:44:24+0000,-31.53,-21.59,-35.53,-44.40,-44.62,-46.33
2022/11/13 03:45:16+0000,-39.11,-22.88,-35.64,-43.27,-44.90,-45.38
2022/11/13 03:46:08+0000,-39.22,-24.84,-36.86,-41.83,-44.13,-46.19
2022/11/13 03:47:00+0000,-41.51,-20.96,-35.92,-44.36,-44.13,-45.34
2022/11/13 03:47:52+0000,-37.07,-23.73,-36.79,-44.44,-44.31,-45.25
2022/11/13 03:48:44+0000,-41.59,-22.90,-36.84,-41.72,-44.19,-45.21
2022/11/13 03:49:36+0000,-36.58,-22.12,-36.69,-40.49,-44.15,-43.99
2022/11/13 03:50:35+0000,-39.84,-29.94,-37.15,-43.04,-43.35,-45.43
2022/11/13 03:51:36+0000,-38.91,-29.95,-37.43,-44.11,-45.02,-45.30
2022/11/13 03:52:28+0000,-42.80,-20.84,-36.77,-41.82,-44.18,-44.64
2022/11/13 03:53:20+0000,-32.45,-30.23,-37.93,-44.15,-44.59,-42.86
2022/11/13 03:54:12+0000,-40.61,-20.99,-37.41,-42.78,-44.42,-44.17
2022/11/13 03:55:04+0000,-38.95,-16.86,-37.66,-44.10,-44.20,-43.68
2022/11/13 03:55:56+0000,-31.25,-20.92,-37.67,-44.35,-44.42,-43.03
2022/11/13 03:56:48+0000,-39.70,-22.38,-38.10,-44.30,-44.80,-41.61
2022/11/13 03:57:40+0000,-39.35,-21.28,-37.81,-44.37,-43.87,-45.80
2022/11/13 03:58:32+0000,-37.04,-21.57,-36.41,-43.68,-44.56,-45.88
2022/11/13 03:59:25+0000,-37.22,-25.13,-36.82,-43.84,-44.29,-45.88
2022/11/13 04:00:21+0000,-36.75,-29.98,-37.31,-44.67,-46.38,-45.74
2022/11/13 04:01:22+0000,-35.60,-24.40,-37.21,-43.78,-44.63,-45.19
2022/11/13 04:02:14+0000,-40.12,-20.92,-36.73,-41.00,-44.46,-45.87
2022/11/13 04:03:06+0000,-37.41,-29.00,-37.25,-40.32,-44.40,-46.05
2022/11/13 04:03:58+0000,-41.85,-21.20,-36.23,-43.77,-44.69,-45.71
2022/11/13 04:04:51+0000,-33.57,-29.52,-36.72,-43.88,-43.95,-44.89
2022/11/13 04:05:43+0000,-38.20,-23.60,-36.38,-43.89,-43.91,-45.09
2022/11/13 04:06:35+0000,-36.96,-28.97,-36.35,-43.27,-44.83,-45.27
2022/11/13 04:07:27+0000,-37.90,-21.49,-37.52,-43.71,-45.62,-43.96
2022/11/13 04:08:19+0000,-36.86,-21.52,-36.91,-44.07,-43.95,-45.19
2022/11/13 04:09:11+0000,-32.31,-22.49,-37.39,-43.67,-44.29,-43.57
2022/11/13 04:10:09+0000,-30.93,-22.72,-36.78,-43.97,-43.76,-45.25
2022/11/13 04:11:09+0000,-33.68,-23.25,-36.47,-44.28,-44.59,-42.27
2022/11/13 04:12:01+0000,-33.52,-21.22,-38.30,-44.55,-45.44,-43.78
2022/11/13 04:12:53+0000,-35.16,-19.97,-37.44,-44.29,-44.50,-42.94
2022/11/13 04:13:45+0000,-42.73,-21.46,-37.88,-44.74,-45.05,-43.50
2022/11/13 04:14:37+0000,-29.84,-24.64,-35.92,-44.61,-44.65,-43.15
2022/11/13 04:15:29+0000,-41.87,-20.06,-36.47,-43.71,-45.56,-42.27
2022/11/13 04:16:21+0000,-36.00,-23.76,-36.79,-42.27,-46.03,-45.22
2022/11/13 04:17:14+0000,-39.65,-24.68,-36.09,-43.91,-45.16,-45.01
2022/11/13 04:18:06+0000,-33.62,-30.10,-36.60,-44.57,-44.14,-45.05
2022/11/13 04:18:58+0000,-37.01,-21.65,-38.12,-44.23,-44.84,-44.50
2022/11/13 04:19:54+0000,-37.50,-21.76,-37.01,-43.76,-44.81,-44.51
2022/11/13 04:20:46+0000,-42.07,-22.81,-37.43,-42.89,-46.10,-44.98
2022/11/13 04:21:47+0000,-37.82,-22.86,-37.40,-43.95,-45.52,-44.82
2022/11/13 04:22:39+0000,-31.28,-27.05,-36.18,-44.03,-43.76,-45.05
2022/11/13 04:23:31+0000,-39.34,-20.65,-36.93,-44.44,-43.75,-44.42
2022/11/13 04:24:23+0000,-38.04,-21.77,-38.08,-42.77,-44.76,-44.94
2022/11/13 04:25:15+0000,-41.55,-20.07,-37.09,-41.77,-44.74,-44.58
2022/11/13 04:26:07+0000,-29.22,-21.89,-36.09,-42.42,-44.56,-44.72
2022/11/13 04:26:59+0000,-41.69,-22.99,-36.82,-43.85,-44.84,-44.26
2022/11/13 04:27:51+0000,-36.09,-27.17,-36.55,-44.19,-44.89,-44.34
2022/11/13 04:28:43+0000,-37.25,-24.70,-37.88,-42.63,-45.27,-44.40
2022/11/13 04:29:35+0000,-31.97,-22.38,-37.03,-42.62,-44.80,-42.92
2022/11/13 04:30:33+0000,-34.77,-24.02,-36.86,-44.56,-43.74,-42.61
2022/11/13 04:31:34+0000,-36.26,-24.18,-36.79,-43.97,-43.67,-43.10
2022/11/13 04:32:26+0000,-38.54,-24.59,-38.20,-44.39,-44.78,-42.37
2022/11/13 04:33:18+0000,-40.58,-21.17,-36.56,-43.71,-45.22,-42.84
2022/11/13 04:34:10+0000,-36.94,-26.11,-37.25,-43.58,-44.54,-43.25
2022/11/13 04:35:02+0000,-36.31,-25.09,-37.54,-45.17,-44.58,-44.38
2022/11/13 04:35:54+0000,-39.38,27.41,-35.54,-45.14,-43.85,-44.24
2022/11/13 04:36:46+0000,-38.31,-23.48,-38.35,-42.53,-44.68,-43.98
2022/11/13 04:37:38+0000,-37.31,-23.34,-37.50,-42.16,-44.03,-44.92
2022/11/13 04:38:30+0000,-42.13,-23.94,-36.32,-43.73,-44.76,-43.95